QPF
0.00 0.00 0.00 0.00 0.00 0.00 0.00 0.00 0.00 0.00 0.00 0.00 0.00 0.00 0.00 0.00 0.00 0.00 0.00 0.00 0.00 0.00 0.00 0.00 0.00 0.00 0.00
0.00 0.00 0.00 0.00 0.00 0.00 0.00 0.00 0.00 0.00 0.00 0.00 0.00 0.00 0.00 0.00 0.00 0.00 0.00 0.00 0.00 0.00 0.00 0.00 0.00 0.00 0.00
0.00 0.00 0.00 0.00 0.00 0.00 0.00 0.00 0.00 0.00 0.00 0.00 0.00 0.00 0.00 0.00 0.00 0.00 0.00 0.00 0.00 0.00 0.00 0.00 0.00 0.00 0.00
0.00 0.00 0.00 0.00 0.00 0.00 0.00 0.00 0.00 0.00 0.00 0.00 0.00 0.00 0.00 0.00 0.00 0.00 0.00 0.00 0.00 0.00 0.00 0.00 0.00 0.00 0.00
0.00 0.00 0.00 0.00 0.00 0.00 0.00 0.00 0.00 0.00 0.00 0.00 0.00 0.00 0.00 0.00 0.00 0.00 0.00 0.00 0.00 0.00 0.00 0.00 0.00 0.00 0.00
0.00 0.00 0.00 0.00 0.00 0.00 0.00 0.00 0.00 0.00 0.00 0.00 0.00 0.00 0.00 0.00 0.00 0.00 0.00 0.00 0.00 0.00 0.00 0.00 0.00 0.00 0.00
0.00 0.00 0.00 0.00 0.00 0.00 0.00 0.00 0.00 0.00 0.00 0.00 0.00 0.00 0.00 0.00 0.00 0.00 0.00 0.00 0.00 0.00 0.00 0.00 0.00 0.00 0.00
0.00 0.00 0.00 0.00 0.00 0.00 0.00 0.00 0.00 0.00 0.00 0.00 0.00 0.00 0.00 0.00 0.00 0.00 0.00 0.00 0.00 0.00 0.00 0.00 0.00 0.00 0.00
0.00 0.00 0.00 0.00 0.00 0.00 0.00 0.00 0.00 0.00 0.00 0.00 0.00 0.00 0.00 0.00 0.00 0.00 0.00 0.00 0.00 0.00 0.00 0.00 0.00 0.00 0.00
0.00 0.00 0.00 0.00 0.00 0.00 0.00 0.00 0.00 0.00 0.00 0.00 0.00 0.00 0.00 0.00 0.00 0.00 0.00 0.00 0.00 0.00 0.00 0.00 0.00 0.00 0.00
0.00 0.00 0.00 0.00 0.00 0.00 0.00 0.00 0.00 0.00 0.00 0.00 0.00 0.00 0.00 0.00 0.00 0.00 0.00 0.00 0.00 0.00 0.00 0.00 0.00 0.00 0.00
0.00 0.00 0.00 0.00 0.00 0.00 0.00 0.00 0.00 0.00 0.00 0.00 0.00 0.00 0.00 0.00 0.00 0.00 0.00 0.00 0.00 0.00 0.00 0.00 0.00 0.00 0.00
0.00 0.00 0.00 0.00 0.00 0.00 0.00 0.00 0.00 0.00 0.00 0.00 0.00 0.00 0.00 0.00 0.00 0.00 0.00 0.00 0.00 0.00 0.00 0.00 0.00 0.00 0.00
0.00 0.00 0.00 0.00 0.00 0.00 0.00 0.00 0.00 0.00 0.00 0.00 0.00 0.00 0.00 0.00 0.00 0.00 0.00 0.00 0.00 0.00 0.00 0.00 0.00 0.00 0.00
0.00 0.00 0.00 0.00 0.00 0.00 0.00 0.00 0.00 0.00 0.00 0.00 0.00 0.00 0.00 0.00 0.00 0.00 0.00 0.00 0.00 0.00 0.00 0.00 0.00 0.00 0.00
0.00 0.00 0.00 0.00 0.00 0.00 0.00 0.00 0.00 0.00 0.00 0.00 0.00 0.00 0.00 0.00 0.00 0.00 0.00 0.00 0.00 0.00 0.00 0.00 0.00 0.00 0.00
0.00 0.00 0.00 0.00 0.00 0.00 0.00 0.00 0.00 0.00 0.00 0.00 0.00 0.00 0.00 0.00 0.00 0.00 0.00 0.00 0.00 0.00 0.00 0.00 0.00 0.00 0.00
MSLP
1028.90 1029.11 1029.06 1029.10 1029.08 1028.87 1028.85 1029.00 1029.00 1028.56 1028.59 1028.23 1028.09 1027.94 1027.59 1027.36 1027.07 1026.86 1026.43 1026.34 1025.97 1025.58 1024.95 1024.52 1024.12 1023.62 1022.92
1029.29 1029.25 1029.19 1029.32 1029.26 1029.12 1029.03 1029.05 1029.02 1028.77 1028.51 1028.31 1028.20 1027.93 1027.82 1027.26 1026.76 1026.46 1026.35 1026.25 1025.69 1025.35 1024.98 1024.50 1023.85 1023.26 1022.84
1029.26 1029.37 1029.49 1029.42 1029.20 1029.16 1029.28 1029.50 1029.22 1028.80 1028.52 1028.59 1028.57 1028.24 1027.78 1027.49 1027.11 1026.71 1026.16 1025.88 1025.49 1025.15 1024.76 1024.10 1023.56 1023.09 1022.57
1029.54 1029.76 1029.92 1029.66 1029.48 1029.53 1029.69 1029.79 1029.19 1028.58 1028.40 1028.52 1028.23 1028.05 1027.79 1027.39 1027.09 1026.75 1026.10 1025.55 1025.29 1024.77 1024.23 1023.75 1023.25 1022.72 1022.23
1029.75 1030.07 1029.98 1029.62 1029.69 1029.83 1029.91 1029.82 1029.20 1028.93 1028.68 1028.57 1028.50 1027.89 1027.95 1027.45 1026.90 1026.40 1025.84 1025.32 1024.81 1024.27 1023.84 1023.39 1022.83 1022.34 1021.76
1029.88 1030.13 1030.23 1030.21 1030.27 1030.00 1029.79 1029.71 1029.64 1028.92 1028.81 1028.53 1028.18 1028.11 1027.71 1027.32 1026.62 1026.01 1025.52 1024.90 1024.36 1024.00 1023.60 1022.99 1022.51 1021.87 1021.25
1029.30 1029.91 1030.12 1030.00 1030.06 1030.21 1029.84 1029.54 1029.48 1029.10 1029.07 1028.27 1028.30 1027.72 1027.40 1026.89 1026.31 1025.61 1025.01 1024.50 1024.13 1023.67 1023.19 1022.67 1022.01 1021.42 1020.77
1029.57 1030.06 1029.99 1029.70 1029.97 1029.55 1029.55 1029.68 1029.13 1029.02 1028.74 1028.61 1027.82 1027.35 1026.89 1026.48 1025.72 1025.20 1024.72 1024.39 1023.93 1023.43 1022.85 1022.26 1021.61 1020.91 1020.23
1029.15 1029.38 1029.37 1029.49 1029.24 1029.42 1029.61 1029.72 1029.44 1029.02 1028.76 1028.77 1027.92 1027.09 1026.39 1025.72 1025.42 1025.05 1024.67 1024.32 1023.85 1023.22 1022.68 1021.99 1021.30 1020.55 1020.00
1029.68 1029.91 1029.74 1029.70 1029.83 1030.01 1029.65 1029.88 1029.90 1028.98 1028.86 1028.76 1028.10 1027.94 1026.58 1025.56 1025.38 1025.01 1024.71 1024.22 1023.47 1022.95 1022.32 1021.74 1021.14 1020.48 1019.70
1029.94 1029.92 1030.22 1029.92 1030.39 1030.27 1029.46 1029.65 1029.74 1029.49 1028.97 1028.90 1028.40 1028.28 1028.10 1026.51 1025.21 1024.79 1024.33 1023.85 1023.21 1022.59 1022.05 1021.47 1020.87 1020.24 1019.36
1030.08 1030.37 1030.37 1030.38 1030.25 1029.75 1029.38 1029.30 1029.14 1028.97 1028.54 1028.46 1028.49 1028.33 1027.93 1026.88 1025.56 1024.40 1023.94 1023.44 1022.69 1022.08 1021.62 1021.01 1020.41 1019.74 1019.03
1030.45 1030.66 1030.53 1030.31 1029.85 1029.49 1029.07 1028.96 1028.83 1028.45 1027.97 1027.89 1027.99 1027.66 1027.48 1026.81 1025.64 1024.60 1023.53 1022.74 1022.28 1021.73 1021.14 1020.62 1019.96 1019.25 1018.45
1030.45 1030.37 1030.09 1030.03 1029.82 1029.60 1029.46 1029.05 1028.69 1028.15 1027.72 1027.62 1027.45 1027.20 1026.80 1026.11 1025.42 1024.28 1023.65 1023.23 1022.03 1021.35 1020.66 1020.09 1019.31 1018.71 1018.13
1030.21 1030.11 1030.13 1030.09 1029.81 1029.45 1029.24 1029.10 1029.31 1028.68 1027.92 1027.17 1026.69 1026.59 1026.15 1025.55 1024.74 1023.81 1023.09 1022.42 1021.67 1020.83 1020.25 1019.52 1018.78 1018.20 1017.48
1030.05 1030.14 1030.13 1029.89 1029.69 1029.44 1029.50 1029.65 1029.41 1028.61 1027.78 1027.06 1026.60 1026.15 1025.32 1024.49 1023.81 1022.87 1022.42 1021.79 1020.98 1020.38 1019.95 1019.40 1018.33 1017.43 1016.84
1030.04 1029.85 1029.81 1029.77 1029.78 1029.82 1029.61 1029.52 1028.98 1028.36 1027.61 1026.91 1026.50 1026.26 1025.37 1024.15 1022.90 1022.24 1021.85 1021.16 1020.49 1019.87 1019.37 1019.00 1018.16 1016.90 1016.24
Thickness
5492 5488 5485 5482 5478 5476 5471 5465 5462 5458 5452 5452 5446 5442 5439 5435 5432 5428 5426 5420 5416 5412 5410 5407 5405 5404 5406
5473 5472 5471 5467 5464 5462 5456 5450 5447 5442 5439 5436 5428 5426 5421 5419 5417 5413 5408 5400 5398 5392 5389 5387 5387 5386 5386
5459 5458 5456 5455 5452 5448 5441 5433 5429 5428 5424 5417 5409 5405 5402 5397 5394 5390 5388 5381 5376 5372 5369 5368 5366 5365 5364
5444 5441 5438 5437 5436 5430 5424 5420 5417 5416 5411 5403 5396 5389 5384 5379 5373 5367 5364 5360 5354 5351 5349 5345 5342 5339 5335
5431 5427 5425 5425 5420 5414 5410 5405 5403 5401 5396 5385 5380 5375 5364 5357 5353 5345 5340 5335 5331 5327 5321 5316 5311 5307 5305
5417 5413 5409 5407 5402 5401 5398 5393 5388 5384 5381 5372 5364 5355 5348 5339 5330 5322 5316 5310 5304 5297 5290 5287 5284 5283 5283
5412 5404 5400 5397 5392 5384 5382 5378 5370 5366 5360 5361 5346 5341 5330 5317 5306 5298 5291 5285 5277 5272 5268 5266 5266 5266 5266
5399 5391 5387 5385 5379 5375 5370 5362 5357 5348 5342 5339 5332 5326 5314 5297 5285 5274 5267 5262 5257 5253 5250 5249 5250 5251 5251
5388 5384 5378 5371 5368 5363 5353 5345 5341 5332 5322 5313 5310 5306 5295 5285 5270 5257 5249 5244 5241 5239 5237 5236 5236 5236 5236
5374 5369 5365 5360 5351 5343 5337 5326 5317 5315 5300 5293 5280 5265 5277 5272 5258 5244 5238 5232 5230 5228 5226 5223 5220 5220 5223
5361 5356 5349 5343 5332 5324 5321 5310 5299 5286 5273 5263 5256 5242 5234 5243 5246 5236 5228 5226 5223 5220 5218 5213 5209 5205 5210
5348 5341 5334 5325 5318 5313 5306 5295 5280 5266 5255 5243 5233 5224 5221 5222 5226 5227 5219 5215 5213 5213 5210 5207 5204 5200 5198
5334 5324 5318 5314 5307 5301 5290 5276 5261 5246 5238 5228 5221 5216 5208 5206 5210 5210 5212 5212 5206 5205 5204 5201 5199 5197 5200
5319 5313 5310 5301 5291 5282 5269 5258 5244 5233 5220 5214 5209 5206 5201 5196 5195 5200 5197 5195 5200 5198 5198 5196 5193 5191 5190
5308 5304 5296 5286 5274 5263 5251 5239 5227 5221 5213 5207 5201 5196 5191 5190 5191 5190 5192 5192 5191 5191 5190 5192 5188 5187 5187
5297 5289 5279 5268 5256 5245 5233 5219 5210 5208 5203 5200 5195 5191 5189 5187 5182 5188 5188 5188 5189 5186 5182 5184 5188 5186 5185
5282 5274 5264 5251 5242 5229 5218 5207 5203 5197 5191 5189 5182 5181 5183 5187 5189 5180 5185 5185 5185 5183 5180 5177 5180 5185 5184